CSN1001 ZJHK-ZSAM

Flight info

Callsign CSN1001
Flight time 1h 22m
Altitude 37100
Route SAMAS9XD SAMAS G221 BIGRO R200 BEBEM A470 TEBON TEBON6W
Aircraft A320/M-SDE3FGHIRWY/LB1

Departure

Time 2026-04-28 06:29
Airport Haikou Meilan International Airport (ZJHK)

Arrival

Time 2026-04-28 07:52
Airport Xiamen Gaoqi International Airport (ZSAM)
Time Latitude Longitude Altitude Speed Heading
2026-04-28 06:15 19.94853 110.45840 52 ft 0 kts 179°
2026-04-28 06:20 19.94871 110.45840 51 ft 3 kts 179°
2026-04-28 06:20 19.94894 110.45841 54 ft 4 kts 192°
2026-04-28 06:21 19.94918 110.45851 52 ft 4 kts 221°
2026-04-28 06:21 19.94928 110.45862 51 ft 0 kts 235°
2026-04-28 06:23 19.94929 110.45851 58 ft 3 kts 281°
2026-04-28 06:23 19.94953 110.45835 53 ft 4 kts 337°
2026-04-28 06:23 19.94964 110.45810 56 ft 4 kts 278°
2026-04-28 06:23 19.94965 110.45773 54 ft 5 kts 269°
2026-04-28 06:24 19.94965 110.45727 51 ft 10 kts 270°
2026-04-28 06:24 19.94976 110.45617 55 ft 18 kts 301°
2026-04-28 06:24 19.95069 110.45537 53 ft 17 kts 343°
2026-04-28 06:24 19.95175 110.45531 52 ft 14 kts 348°
2026-04-28 06:25 19.95203 110.45456 55 ft 11 kts 269°
2026-04-28 06:25 19.95203 110.45380 55 ft 10 kts 270°
2026-04-28 06:25 19.95203 110.45296 54 ft 16 kts 270°
2026-04-28 06:25 19.95203 110.45139 53 ft 24 kts 270°
2026-04-28 06:26 19.95202 110.44964 52 ft 22 kts 270°
2026-04-28 06:26 19.95207 110.44831 52 ft 8 kts 299°
2026-04-28 06:26 19.95254 110.44821 51 ft 0 kts
2026-04-28 06:26 19.95255 110.44821 51 ft 0 kts
2026-04-28 06:27 19.95275 110.44821 51 ft 11 kts
2026-04-28 06:28 19.95354 110.44860 50 ft 13 kts 47°
2026-04-28 06:28 19.95372 110.44922 50 ft 0 kts 90°
2026-04-28 06:28 19.95372 110.44936 51 ft 17 kts 89°
2026-04-28 06:29 19.95374 110.45368 55 ft 94 kts 90°
2026-04-28 06:29 19.95376 110.46261 56 ft 148 kts 90°
2026-04-28 06:29 19.95385 110.47485 215 ft 181 kts 91°
2026-04-28 06:29 19.95471 110.48864 968 ft 184 kts 77°
2026-04-28 06:30 19.96171 110.49995 1602 ft 198 kts 41°
2026-04-28 06:30 19.97354 110.50865 1927 ft 222 kts 36°
2026-04-28 06:30 19.98731 110.51807 2319 ft 246 kts 34°
2026-04-28 06:30 20.00217 110.52811 3020 ft 257 kts 33°
2026-04-28 06:31 20.01741 110.53846 3936 ft 261 kts 33°
2026-04-28 06:31 20.03282 110.54898 4826 ft 265 kts 32°
2026-04-28 06:31 20.04845 110.55968 5669 ft 268 kts 32°
2026-04-28 06:31 20.06425 110.57052 6479 ft 272 kts 31°
2026-04-28 06:32 20.08023 110.58144 7290 ft 275 kts 29°
2026-04-28 06:32 20.09783 110.58954 8096 ft 276 kts 11°
2026-04-28 06:32 20.11703 110.59207 8710 ft 286 kts 354°
2026-04-28 06:32 20.13667 110.58851 9274 ft 294 kts 342°
2026-04-28 06:33 20.15666 110.58324 10043 ft 298 kts 342°
2026-04-28 06:33 20.17753 110.57783 10396 ft 320 kts 343°
2026-04-28 06:33 20.19984 110.57211 10771 ft 336 kts 343°
2026-04-28 06:33 20.22282 110.56634 11444 ft 342 kts 343°
2026-04-28 06:34 20.24618 110.56051 12161 ft 346 kts 343°
2026-04-28 06:34 20.26972 110.55462 12887 ft 349 kts 343°
2026-04-28 06:34 20.29352 110.54864 13606 ft 353 kts 343°
2026-04-28 06:34 20.31752 110.54257 14234 ft 356 kts 343°
2026-04-28 06:35 20.34174 110.53642 14864 ft 359 kts 343°
2026-04-28 06:35 20.36616 110.53021 15488 ft 362 kts 343°
2026-04-28 06:35 20.39078 110.52396 16105 ft 365 kts 343°
2026-04-28 06:35 20.41558 110.51766 16722 ft 368 kts 343°
2026-04-28 06:36 20.44067 110.51130 17326 ft 371 kts 343°
2026-04-28 06:36 20.46652 110.50745 17916 ft 380 kts 356°
2026-04-28 06:36 20.49310 110.51080 18446 ft 390 kts 11°
2026-04-28 06:36 20.51844 110.52164 18947 ft 398 kts 27°
2026-04-28 06:37 20.54064 110.53957 19454 ft 407 kts 43°
2026-04-28 06:37 20.55934 110.56215 19945 ft 411 kts 47°
2026-04-28 06:37 20.57825 110.58576 20456 ft 415 kts 47°
2026-04-28 06:37 20.59682 110.60899 20950 ft 418 kts 47°
2026-04-28 06:38 20.61578 110.63267 21449 ft 421 kts 47°
2026-04-28 06:38 20.63496 110.65658 21945 ft 425 kts 47°
2026-04-28 06:38 20.65423 110.68060 22440 ft 428 kts 47°
2026-04-28 06:38 20.67367 110.70484 22934 ft 431 kts 47°
2026-04-28 06:39 20.69327 110.72927 23407 ft 435 kts 47°
2026-04-28 06:39 20.71305 110.75394 23806 ft 438 kts 47°
2026-04-28 06:39 20.73297 110.77875 24198 ft 441 kts 46°
2026-04-28 06:39 20.75293 110.80362 24580 ft 444 kts 47°
2026-04-28 06:40 20.77307 110.82874 24970 ft 446 kts 47°
2026-04-28 06:40 20.79331 110.85404 25356 ft 449 kts 47°
2026-04-28 06:40 20.81361 110.87949 25736 ft 451 kts 47°
2026-04-28 06:40 20.83405 110.90514 26093 ft 454 kts 47°
2026-04-28 06:41 20.85457 110.93085 26444 ft 456 kts 47°
2026-04-28 06:41 20.87524 110.95672 26787 ft 459 kts 47°
2026-04-28 06:41 20.89609 110.98279 27132 ft 462 kts 47°
2026-04-28 06:41 20.91703 111.00897 27474 ft 464 kts 47°
2026-04-28 06:42 20.93801 111.03525 27804 ft 467 kts 47°
2026-04-28 06:42 20.95908 111.06168 28139 ft 469 kts 47°
2026-04-28 06:42 20.98013 111.08799 28449 ft 471 kts 46°
2026-04-28 06:42 21.00188 111.11506 28767 ft 474 kts 46°
2026-04-28 06:43 21.02317 111.14151 29067 ft 476 kts 46°
2026-04-28 06:43 21.03778 111.15965 29298 ft 477 kts 46°
2026-04-28 06:43 21.06662 111.19545 29711 ft 480 kts 46°
2026-04-28 06:43 21.08843 111.22258 29990 ft 483 kts 46°
2026-04-28 06:44 21.10328 111.24109 30138 ft 484 kts 46°
2026-04-28 06:44 21.13234 111.27741 30461 ft 487 kts 46°
2026-04-28 06:44 21.14725 111.29607 30635 ft 488 kts 46°
2026-04-28 06:44 21.17651 111.33271 30955 ft 490 kts 46°
2026-04-28 06:45 21.19152 111.35148 31110 ft 491 kts 46°
2026-04-28 06:45 21.21383 111.37939 31351 ft 493 kts 46°
2026-04-28 06:45 21.23609 111.40725 31647 ft 492 kts 46°
2026-04-28 06:45 21.25817 111.43487 31971 ft 491 kts 46°
2026-04-28 06:46 21.28034 111.46263 32304 ft 490 kts 46°
2026-04-28 06:46 21.30256 111.49047 32636 ft 489 kts 46°
2026-04-28 06:46 21.32469 111.51821 32972 ft 489 kts 46°
2026-04-28 06:46 21.34674 111.54583 33323 ft 487 kts 46°
2026-04-28 06:47 21.36871 111.57340 33715 ft 485 kts 46°
2026-04-28 06:47 21.39056 111.60083 34050 ft 483 kts 46°
2026-04-28 06:47 21.41236 111.62820 34336 ft 483 kts 46°
2026-04-28 06:47 21.43422 111.65567 34588 ft 482 kts 46°
2026-04-28 06:48 21.45601 111.68303 34823 ft 483 kts 46°
2026-04-28 06:48 21.47785 111.71050 35067 ft 483 kts 46°
2026-04-28 06:48 21.49963 111.73794 35304 ft 483 kts 46°
2026-04-28 06:48 21.52142 111.76539 35536 ft 483 kts 46°
2026-04-28 06:49 21.54312 111.79272 35763 ft 483 kts 46°
2026-04-28 06:49 21.56374 111.82109 35989 ft 486 kts 54°
2026-04-28 06:49 21.58045 111.85278 36207 ft 489 kts 63°
2026-04-28 06:49 21.59398 111.88643 36410 ft 490 kts 65°
2026-04-28 06:50 21.60739 111.92005 36617 ft 491 kts 64°
2026-04-28 06:50 21.62090 111.95372 36817 ft 491 kts 64°
2026-04-28 06:50 21.63452 111.98749 36934 ft 491 kts 64°
2026-04-28 06:51 21.66139 112.05422 36949 ft 488 kts 64°
2026-04-28 06:51 21.68818 112.12128 36949 ft 488 kts 65°
2026-04-28 06:52 21.71495 112.18855 36952 ft 489 kts 64°
2026-04-28 06:52 21.74171 112.25582 36955 ft 489 kts 64°
2026-04-28 06:53 21.76859 112.32318 36952 ft 489 kts 64°
2026-04-28 06:53 21.79546 112.39041 36953 ft 489 kts 64°
2026-04-28 06:54 21.82224 112.45792 36957 ft 489 kts 65°
2026-04-28 06:54 21.84890 112.52540 36959 ft 490 kts 64°
2026-04-28 06:55 21.87578 112.59292 36954 ft 490 kts 64°
2026-04-28 06:55 21.90299 112.65980 36959 ft 491 kts 64°
2026-04-28 06:56 21.93034 112.72717 36960 ft 491 kts 64°
2026-04-28 06:56 21.95753 112.79475 36959 ft 492 kts 64°
2026-04-28 06:57 21.98454 112.86248 36960 ft 492 kts 64°
2026-04-28 06:57 22.01104 112.93058 36963 ft 493 kts 65°
2026-04-28 06:58 22.03743 112.99892 36968 ft 493 kts 65°
2026-04-28 06:58 22.06476 113.06677 36983 ft 493 kts 63°
2026-04-28 06:59 22.09303 113.13358 36976 ft 492 kts 62°
2026-04-28 06:59 22.12152 113.20079 36973 ft 492 kts 63°
2026-04-28 07:00 22.14927 113.26832 36971 ft 493 kts 64°
2026-04-28 07:00 22.17488 113.33718 36971 ft 494 kts 66°
2026-04-28 07:01 22.19958 113.40643 36974 ft 494 kts 66°
2026-04-28 07:01 22.22988 113.47242 36972 ft 487 kts 51°
2026-04-28 07:02 22.27360 113.52673 36993 ft 482 kts 42°
2026-04-28 07:02 22.31934 113.57958 36988 ft 481 kts 43°
2026-04-28 07:03 22.36501 113.63262 36984 ft 481 kts 43°
2026-04-28 07:03 22.41044 113.68544 36980 ft 481 kts 43°
2026-04-28 07:04 22.45606 113.73851 36981 ft 481 kts 43°
2026-04-28 07:04 22.50147 113.79136 36991 ft 481 kts 43°
2026-04-28 07:05 22.54734 113.84469 37012 ft 481 kts 43°
2026-04-28 07:05 22.59288 113.89775 37017 ft 481 kts 43°
2026-04-28 07:06 22.63839 113.95086 37012 ft 480 kts 43°
2026-04-28 07:06 22.68231 114.00535 37001 ft 484 kts 52°
2026-04-28 07:06 22.69899 114.03655 36997 ft 487 kts 63°
2026-04-28 07:07 22.71108 114.07145 36993 ft 490 kts 73°
2026-04-28 07:07 22.72136 114.14440 36973 ft 491 kts 83°
2026-04-28 07:08 22.72891 114.21750 36964 ft 492 kts 83°
2026-04-28 07:08 22.73661 114.29136 36968 ft 493 kts 83°
2026-04-28 07:09 22.74427 114.36507 36987 ft 493 kts 83°
2026-04-28 07:09 22.75194 114.43895 36992 ft 493 kts 83°
2026-04-28 07:10 22.75948 114.51278 36992 ft 493 kts 83°
2026-04-28 07:10 22.76706 114.58672 36995 ft 493 kts 83°
2026-04-28 07:11 22.77448 114.66010 36995 ft 493 kts 83°
2026-04-28 07:11 22.78191 114.73387 36995 ft 492 kts 83°
2026-04-28 07:12 22.78950 114.80763 37003 ft 492 kts 83°
2026-04-28 07:12 22.79746 114.88143 37003 ft 493 kts 83°
2026-04-28 07:13 22.80548 114.95523 37005 ft 492 kts 83°
2026-04-28 07:13 22.81331 115.02898 37001 ft 492 kts 84°
2026-04-28 07:14 22.82099 115.10242 37005 ft 493 kts 84°
2026-04-28 07:14 22.82869 115.17664 37006 ft 493 kts 84°
2026-04-28 07:15 22.83632 115.25000 37007 ft 493 kts 84°
2026-04-28 07:15 22.84397 115.32377 37012 ft 493 kts 84°
2026-04-28 07:16 22.85158 115.39779 37005 ft 493 kts 84°
2026-04-28 07:16 22.85916 115.47183 37029 ft 493 kts 84°
2026-04-28 07:17 22.86670 115.54580 37026 ft 493 kts 84°
2026-04-28 07:17 22.87424 115.61971 37024 ft 492 kts 84°
2026-04-28 07:18 22.88163 115.69304 37010 ft 492 kts 84°
2026-04-28 07:18 22.88902 115.76683 37013 ft 492 kts 84°
2026-04-28 07:19 22.89636 115.84046 37011 ft 492 kts 84°
2026-04-28 07:19 22.90381 115.91441 37007 ft 492 kts 84°
2026-04-28 07:20 22.91157 115.98814 36991 ft 492 kts 84°
2026-04-28 07:20 22.91942 116.06192 36993 ft 492 kts 84°
2026-04-28 07:21 22.92702 116.13533 36995 ft 492 kts 84°
2026-04-28 07:21 22.93456 116.20915 36996 ft 492 kts 84°
2026-04-28 07:22 22.95201 116.31913 36998 ft 492 kts 68°
2026-04-28 07:22 22.96655 116.35220 36997 ft 490 kts 57°
2026-04-28 07:22 22.98588 116.38234 36994 ft 486 kts 47°
2026-04-28 07:23 23.03556 116.43112 36991 ft 479 kts 33°
2026-04-28 07:23 23.08860 116.47495 36992 ft 480 kts 33°
2026-04-28 07:24 23.14186 116.51904 36997 ft 481 kts 33°
2026-04-28 07:24 23.19510 116.56326 37002 ft 481 kts 33°
2026-04-28 07:25 23.24845 116.60741 37007 ft 481 kts 33°
2026-04-28 07:25 23.30184 116.65159 36998 ft 482 kts 33°
2026-04-28 07:26 23.35513 116.69598 36997 ft 482 kts 33°
2026-04-28 07:26 23.39952 116.73297 36990 ft 483 kts 33°
2026-04-28 07:27 23.43477 116.76254 36322 ft 483 kts 37°
2026-04-28 07:27 23.45178 116.77932 35165 ft 494 kts 44°
2026-04-28 07:27 23.48334 116.81522 33954 ft 489 kts 45°
2026-04-28 07:27 23.50623 116.84150 33828 ft 466 kts 45°
2026-04-28 07:28 23.52089 116.85832 33670 ft 460 kts 45°
2026-04-28 07:28 23.54289 116.88348 33117 ft 458 kts 45°
2026-04-28 07:28 23.56489 116.90849 32588 ft 457 kts 45°
2026-04-28 07:28 23.58696 116.93351 32065 ft 455 kts 45°
2026-04-28 07:29 23.60882 116.95828 31538 ft 454 kts 45°
2026-04-28 07:29 23.63071 116.98312 31019 ft 452 kts 45°
2026-04-28 07:29 23.65238 117.00777 30501 ft 451 kts 45°
2026-04-28 07:29 23.67404 117.03242 29996 ft 449 kts 45°
2026-04-28 07:30 23.69568 117.05701 29443 ft 447 kts 45°
2026-04-28 07:30 23.71710 117.08139 28989 ft 442 kts 45°
2026-04-28 07:30 23.73832 117.10556 28482 ft 439 kts 45°
2026-04-28 07:30 23.75926 117.12945 28028 ft 435 kts 45°
2026-04-28 07:31 23.78047 117.15271 27569 ft 431 kts 42°
2026-04-28 07:31 23.80246 117.17498 27103 ft 427 kts 40°
2026-04-28 07:31 23.82471 117.19635 26657 ft 424 kts 39°
2026-04-28 07:31 23.84697 117.21731 26197 ft 421 kts 39°
2026-04-28 07:32 23.86908 117.23812 25722 ft 419 kts 39°
2026-04-28 07:32 23.89054 117.25856 25269 ft 416 kts 39°
2026-04-28 07:32 23.91206 117.27933 24786 ft 415 kts 39°
2026-04-28 07:32 23.93368 117.30043 24300 ft 413 kts 39°
2026-04-28 07:33 23.95506 117.32142 23800 ft 413 kts 39°
2026-04-28 07:33 23.97638 117.34238 23266 ft 412 kts 39°
2026-04-28 07:33 23.99772 117.36335 22736 ft 410 kts 39°
2026-04-28 07:33 24.01883 117.38408 22244 ft 407 kts 39°
2026-04-28 07:34 24.03985 117.40471 21755 ft 404 kts 39°
2026-04-28 07:34 24.06072 117.42519 21279 ft 401 kts 39°
2026-04-28 07:34 24.08143 117.44554 20807 ft 399 kts 39°
2026-04-28 07:34 24.10212 117.46588 20332 ft 397 kts 39°
2026-04-28 07:35 24.12259 117.48602 19885 ft 395 kts 40°
2026-04-28 07:35 24.14256 117.50657 19392 ft 395 kts 45°
2026-04-28 07:35 24.16115 117.52874 18932 ft 394 kts 46°
2026-04-28 07:35 24.17961 117.55082 18467 ft 393 kts 46°
2026-04-28 07:36 24.19800 117.57289 18088 ft 389 kts 46°
2026-04-28 07:36 24.21622 117.59481 17602 ft 387 kts 46°
2026-04-28 07:36 24.23429 117.61651 17109 ft 384 kts 46°
2026-04-28 07:36 24.25214 117.63792 16649 ft 382 kts 46°
2026-04-28 07:37 24.27001 117.65934 16230 ft 378 kts 47°
2026-04-28 07:37 24.28747 117.68031 15830 ft 375 kts 47°
2026-04-28 07:37 24.30526 117.70168 15412 ft 372 kts 47°
2026-04-28 07:37 24.32248 117.72238 14973 ft 371 kts 47°
2026-04-28 07:38 24.33981 117.74322 14546 ft 370 kts 47°
2026-04-28 07:38 24.35696 117.76387 14145 ft 367 kts 47°
2026-04-28 07:38 24.37411 117.78454 13820 ft 363 kts 47°
2026-04-28 07:38 24.39096 117.80484 13268 ft 357 kts 48°
2026-04-28 07:39 24.40732 117.82455 12793 ft 348 kts 47°
2026-04-28 07:39 24.42359 117.84418 12388 ft 346 kts 48°
2026-04-28 07:39 24.43971 117.86365 11976 ft 344 kts 48°
2026-04-28 07:39 24.45576 117.88304 11564 ft 343 kts 48°
2026-04-28 07:40 24.47178 117.90239 11150 ft 341 kts 47°
2026-04-28 07:40 24.48768 117.92158 10724 ft 340 kts 47°
2026-04-28 07:40 24.50358 117.94076 10312 ft 339 kts 47°
2026-04-28 07:40 24.51921 117.95960 10196 ft 326 kts 48°
2026-04-28 07:41 24.53420 117.97768 10123 ft 315 kts 47°
2026-04-28 07:41 24.54873 117.99525 10036 ft 315 kts 47°
2026-04-28 07:41 24.56335 118.01323 9913 ft 314 kts 51°
2026-04-28 07:41 24.57572 118.03298 9526 ft 316 kts 57°
2026-04-28 07:42 24.58759 118.05320 9095 ft 314 kts 58°
2026-04-28 07:42 24.59931 118.07337 8691 ft 312 kts 58°
2026-04-28 07:42 24.61091 118.09341 8282 ft 306 kts 58°
2026-04-28 07:42 24.62207 118.11271 7900 ft 292 kts 58°
2026-04-28 07:43 24.63274 118.13111 7532 ft 280 kts 58°
2026-04-28 07:43 24.64317 118.14908 7174 ft 279 kts 58°
2026-04-28 07:43 24.65363 118.16709 6808 ft 279 kts 58°
2026-04-28 07:43 24.66384 118.18518 6449 ft 277 kts 59°
2026-04-28 07:44 24.67374 118.20307 6068 ft 268 kts 59°
2026-04-28 07:44 24.68317 118.22021 5732 ft 256 kts 60°
2026-04-28 07:44 24.69220 118.23665 5409 ft 245 kts 59°
2026-04-28 07:44 24.70087 118.25244 5098 ft 242 kts 59°
2026-04-28 07:45 24.70957 118.26826 4782 ft 241 kts 60°
2026-04-28 07:45 24.71824 118.28401 4565 ft 236 kts 60°
2026-04-28 07:45 24.72390 118.30030 4266 ft 223 kts 91°
2026-04-28 07:45 24.72043 118.31569 4175 ft 197 kts 128°
2026-04-28 07:46 24.71076 118.32563 4135 ft 189 kts 158°
2026-04-28 07:46 24.69828 118.32851 4122 ft 182 kts 186°
2026-04-28 07:46 24.68652 118.32460 4028 ft 181 kts 212°
2026-04-28 07:46 24.67751 118.31483 3855 ft 185 kts 230°
2026-04-28 07:47 24.66957 118.30361 3628 ft 186 kts 229°
2026-04-28 07:47 24.66166 118.29245 3387 ft 185 kts 231°
2026-04-28 07:47 24.65367 118.28122 3153 ft 188 kts 229°
2026-04-28 07:47 24.64559 118.26987 2916 ft 189 kts 231°
2026-04-28 07:48 24.63741 118.25839 2683 ft 191 kts 230°
2026-04-28 07:48 24.62916 118.24681 2446 ft 194 kts 231°
2026-04-28 07:48 24.62089 118.23520 2222 ft 190 kts 231°
2026-04-28 07:48 24.61299 118.22411 1933 ft 177 kts 230°
2026-04-28 07:49 24.60561 118.21376 1681 ft 166 kts 228°
2026-04-28 07:49 24.59876 118.20414 1471 ft 155 kts 227°
2026-04-28 07:49 24.59241 118.19524 1294 ft 143 kts 228°
2026-04-28 07:49 24.58637 118.18679 1105 ft 136 kts 229°
2026-04-28 07:50 24.58059 118.17871 932 ft 137 kts 229°
2026-04-28 07:50 24.57461 118.17034 769 ft 140 kts 230°
2026-04-28 07:50 24.56858 118.16192 578 ft 140 kts 231°
2026-04-28 07:50 24.56267 118.15359 392 ft 141 kts 232°
2026-04-28 07:51 24.55657 118.14507 223 ft 143 kts 233°
2026-04-28 07:51 24.55046 118.13655 51 ft 138 kts 232°
2026-04-28 07:51 24.54568 118.12980 43 ft 72 kts 232°
2026-04-28 07:51 24.54309 118.12615 42 ft 52 kts 231°
2026-04-28 07:52 24.54141 118.12493 46 ft 21 kts 213°
2026-04-28 07:52 24.54032 118.12438 48 ft 15 kts 202°
2026-04-28 07:52 24.53950 118.12390 45 ft 12 kts 216°
2026-04-28 07:52 24.53894 118.12330 45 ft 11 kts 230°
2026-04-28 07:53 24.53849 118.12268 42 ft 10 kts 232°
2026-04-28 07:53 24.53806 118.12211 42 ft 9 kts 220°
2026-04-28 07:53 24.53755 118.12212 45 ft 7 kts 151°
2026-04-28 07:53 24.53717 118.12243 43 ft 6 kts 141°
2026-04-28 07:54 24.53695 118.12283 45 ft 9 kts 97°
2026-04-28 07:54 24.53732 118.12357 45 ft 11 kts 52°
2026-04-28 07:54 24.53777 118.12419 45 ft 10 kts 51°
2026-04-28 07:54 24.53817 118.12475 50 ft 9 kts 51°
2026-04-28 07:55 24.53852 118.12525 45 ft 8 kts 52°
2026-04-28 07:55 24.53883 118.12569 45 ft 7 kts 52°
2026-04-28 07:55 24.53909 118.12607 44 ft 6 kts 58°
2026-04-28 07:55 24.53911 118.12645 45 ft 5 kts 111°
2026-04-28 07:56 24.53882 118.12675 45 ft 1 kts 141°
2026-04-28 07:56 24.53875 118.12680 43 ft 2 kts 141°
2026-04-28 07:56 24.53866 118.12688 45 ft 0 kts 142°
2026-04-28 07:56 24.53865 118.12689 45 ft 0 kts 142°